User: anonymous   Login
Location: Unspecified
(0.0000°N, 0.0000°E)
Time: 19:32:12
(UTC+02:00)
Language:

CZ-4B R/B - Orbit

View from above orbital plane
View from above orbital plane
View from above satellite
View from above satellite

Ground track
Ground track

The orbit data is extracted from the following two-line orbital elements,

1 33410U 08053C   17227.87427353  .00000858  00000-0  67257-4 0  9997
2 33410  97.7362 197.9515 0119807 351.9282   8.0010 14.98348431479723
Epoch (UTC): 15 August 2017 20:58:57
Eccentricity: 0.0119807
inclination: 97.7362°
perigee height: 489 km
apogee height: 655 km
right ascension of ascending node: 197.9515°
argument of perigee: 351.9282°
revolutions per day: 14.98348431
mean anomaly at epoch: 8.0010°
orbit number at epoch: 47972

The dashed part of the orbit path shows where the satellite is in the earth's shadow,  

DLR